Date,TemperatureHighF,TemperatureAvgF,TemperatureLowF,DewpointHighF,DewpointAvgF,DewpointLowF,HumidityHigh,HumidityAvg,HumidityLow,PressureMaxIn,PressureMinIn,WindSpeedMaxMPH,WindSpeedAvgMPH,GustSpeedMaxMPH,PrecipitationSumIn
2013-1-1,37,28,18,25,17,9,93,67,43,30.39,30.28,18,8,31,0.01
2013-1-2,45,34,27,12,9,3,52,37,18,30.31,30.20,19,11,27,0.00
2013-1-3,37,36,34,8,6,4,34,28,25,30.21,30.17,23,13,29,0.00
2013-1-4,55,39,23,13,5,-17,47,28,5,30.36,30.27,10,3,13,0.00
2013-1-5,58,38,22,15,4,-3,43,28,9,30.43,30.27,7,3,10,0.00
2013-1-6,38,33,28,34,24,2,97,77,22,30.26,30.02,22,9,29,0.00
2013-1-7,42,34,27,30,24,13,97,70,31,30.18,30.00,24,10,30,0.17
2013-1-8,58,48,39,28,19,6,48,32,25,30.24,30.15,17,7,27,0.00
2013-1-9,63,50,41,33,27,22,54,42,29,30.18,29.97,12,5,17,0.00
2013-1-10,40,30,22,35,27,20,97,89,54,30.05,29.78,26,11,36,0.07
2013-1-11,32,23,17,21,18,15,94,82,55,30.27,30.05,14,6,34,0.00
2013-1-12,34,23,12,21,15,9,93,75,46,30.27,30.14,16,4,23,0.00
2013-1-13,37,24,14,22,15,8,89,69,43,30.29,30.18,10,4,15,0.00
2013-1-14,30,22,7,12,-1,-8,79,41,20,30.46,30.24,32,9,35,0.01
2013-1-15,36,30,21,15,9,-5,49,41,30,30.55,30.46,29,17,42,0.00
2013-1-16,46,39,34,21,18,14,51,43,36,30.48,30.33,30,16,42,0.00
2013-1-17,53,42,37,18,15,12,40,33,23,30.37,30.23,17,11,25,0.00
2013-1-18,54,45,40,19,16,14,39,32,24,30.28,30.20,15,8,21,0.00
2013-1-19,56,44,37,18,14,9,37,29,20,30.30,30.21,15,6,19,0.00
2013-1-20,58,45,33,12,8,1,39,23,14,30.27,30.15,16,6,18,0.00
2013-1-21,60,48,37,5,1,-5,21,15,8,30.21,30.13,12,6,17,0.00
2013-1-22,68,50,37,26,8,-8,65,23,6,30.23,30.14,14,4,14,0.00
2013-1-23,64,51,36,38,31,24,75,48,28,30.20,30.12,14,4,18,0.00
2013-1-24,53,47,43,52,45,33,98,92,62,30.20,30.07,9,3,15,0.18
2013-1-25,48,46,42,47,45,42,99,98,97,30.19,29.97,9,2,13,1.01
2013-1-26,48,44,41,47,43,41,99,98,95,30.01,29.90,13,5,17,0.40
2013-1-27,41,35,27,40,34,26,98,93,83,30.02,29.93,20,9,27,0.02
2013-1-28,35,29,22,29,25,21,95,86,64,30.28,30.12,17,6,25,0.03
2013-1-29,54,44,34,32,28,20,70,54,42,30.33,30.24,21,7,30,0.03
2013-1-30,54,44,36,29,26,24,69,51,35,30.36,30.29,24,9,35,0.00
2013-1-31,54,46,41,32,27,23,58,49,36,30.30,30.19,21,8,25,0.00
2013-2-1,64,47,32,31,22,12,64,39,17,30.29,30.20,8,2,10,0.00
2013-2-2,61,50,37,38,23,15,75,36,20,30.29,30.18,9,3,12,0.00
2013-2-3,57,46,39,41,39,36,91,76,54,30.18,30.02,13,4,14,0.02
2013-2-4,58,45,30,35,30,25,85,59,35,30.14,30.04,13,5,17,0.00
2013-2-5,62,44,29,35,28,23,85,56,32,30.16,30.00,8,3,17,0.00
2013-2-6,58,43,27,26,20,5,72,44,13,30.13,29.92,13,6,22,0.00
2013-2-7,58,37,24,33,22,12,95,60,19,30.21,29.97,15,4,21,0.00
2013-2-8,30,27,24,29,26,23,96,95,94,29.97,29.90,23,11,38,0.00
2013-2-9,31,26,22,30,24,19,96,95,89,30.20,29.96,19,9,29,0.09
2013-2-10,24,21,19,23,19,16,96,92,88,30.20,30.16,8,4,16,0.00
2013-2-11,36,29,18,30,20,9,87,72,58,30.39,30.25,10,4,14,0.04
2013-2-12,44,35,25,16,12,9,64,40,27,30.45,30.35,26,8,26,0.01
2013-2-13,55,42,29,23,17,9,72,38,26,30.34,30.21,15,7,23,0.00
2013-2-14,53,45,39,26,23,21,50,42,34,30.27,30.15,21,8,28,0.00
2013-2-15,50,45,41,22,16,8,43,32,21,30.33,30.18,24,13,36,0.00
2013-2-16,58,46,32,19,10,-8,55,27,7,30.31,30.07,20,6,26,0.00
2013-2-17,54,44,35,29,15,7,65,32,20,30.07,29.95,16,7,23,0.00
2013-2-18,61,41,24,34,15,-1,86,39,18,30.12,29.97,9,4,15,0.00
2013-2-19,39,30,26,31,23,-5,97,82,15,29.97,29.74,15,7,31,0.01
2013-2-20,31,26,22,30,25,21,97,95,92,30.12,29.69,27,9,39,0.15
2013-2-21,34,28,22,32,26,21,96,92,79,30.21,30.09,12,5,22,0.07
2013-2-22,49,33,23,28,21,16,83,63,32,30.31,30.20,21,6,25,0.21
2013-2-23,53,37,22,29,22,17,84,58,29,30.27,30.01,15,6,25,0.00
2013-2-24,38,34,28,25,9,0,71,38,25,30.29,30.00,22,10,34,0.00
2013-2-25,54,40,31,19,10,2,45,29,14,30.33,30.11,12,5,21,0.00
2013-2-26,48,42,35,18,10,-7,41,27,13,30.21,30.03,16,8,23,0.00
2013-2-27,48,40,33,13,8,2,39,27,20,30.38,30.20,18,9,29,0.00
2013-2-28,52,45,38,12,8,2,25,22,18,30.42,30.36,23,10,32,0.00
2013-3-1,60,50,44,20,16,10,34,25,19,30.42,30.30,21,8,29,0.00
2013-3-2,71,54,43,28,19,2,40,27,10,30.33,30.12,17,5,23,0.00
2013-3-3,59,49,38,31,19,9,73,32,20,30.12,29.91,28,10,38,0.00
2013-3-4,60,44,32,41,33,24,93,67,32,30.17,29.90,29,7,32,0.00
2013-3-5,62,45,31,36,30,12,87,58,28,30.17,30.05,13,4,18,0.00
2013-3-6,58,43,32,35,22,1,92,52,13,30.07,29.96,15,7,21,0.00
2013-3-7,41,36,32,38,34,31,97,93,85,29.98,29.91,14,6,26,0.01
2013-3-8,33,30,26,33,29,25,98,97,94,30.10,29.80,20,3,22,0.18
2013-3-9,40,35,29,36,32,27,98,88,64,30.30,30.08,13,4,24,0.58
2013-3-10,52,44,38,27,22,13,64,44,28,30.34,30.25,20,9,27,0.00
2013-3-11,64,50,34,34,22,11,76,36,22,30.28,30.09,15,6,22,0.00
2013-3-12,65,54,44,29,21,12,35,27,22,30.17,30.09,14,7,24,0.00
2013-3-13,72,60,48,29,25,23,38,27,18,30.18,30.09,13,6,22,0.00
2013-3-14,73,59,42,31,26,20,55,30,18,30.11,30.05,16,5,21,0.00
2013-3-15,77,56,41,36,28,11,65,38,13,30.09,29.95,13,5,21,0.00
2013-3-16,70,59,53,30,14,-25,37,19,3,29.94,29.82,16,8,26,0.00
2013-3-17,71,58,47,39,22,8,37,25,15,29.92,29.84,17,5,20,0.00
2013-3-18,69,56,45,41,16,-11,43,22,7,29.99,29.87,13,5,20,0.00
2013-3-19,63,53,47,38,28,11,56,39,21,30.10,29.93,21,8,29,0.00
2013-3-20,64,52,40,38,27,8,60,39,20,30.08,29.93,19,8,26,0.00
2013-3-21,68,54,45,43,31,7,73,45,14,29.92,29.76,19,6,27,0.00
2013-3-22,66,51,43,41,25,12,70,38,21,29.90,29.69,14,6,25,0.00
2013-3-23,60,50,39,39,18,-7,74,31,11,30.02,29.86,13,5,17,0.00
2013-3-24,65,49,34,42,27,14,84,48,21,30.05,29.94,10,3,14,0.00
2013-3-25,71,51,33,42,30,21,77,48,21,30.05,29.96,8,3,19,0.00
2013-3-26,66,53,44,32,17,0,40,25,11,29.98,29.87,12,6,20,0.00
2013-3-27,60,50,44,36,26,5,73,40,17,30.00,29.87,16,7,22,0.00
2013-3-28,68,52,37,40,33,24,74,50,30,30.07,29.98,11,5,18,0.00
2013-3-29,67,52,33,44,32,12,84,52,21,30.16,30.07,10,3,13,0.00
2013-3-30,67,54,44,42,29,11,67,39,19,30.14,30.02,15,5,19,0.00
2013-3-31,55,47,38,42,38,26,94,72,45,30.07,29.99,15,8,32,0.00
2013-4-1,54,44,34,39,26,8,94,55,20,30.15,30.05,20,9,24,0.00
2013-4-2,68,51,37,44,31,23,85,50,25,30.10,30.01,15,6,20,0.00
2013-4-3,68,53,35,36,30,25,74,44,24,30.12,30.06,12,4,14,0.00
2013-4-4,67,55,41,40,29,10,79,39,15,30.10,29.97,21,6,30,0.00
2013-4-5,60,49,42,42,33,22,85,56,25,30.03,29.94,27,11,35,0.00
2013-4-6,70,55,44,45,33,21,75,45,24,30.03,29.91,25,8,25,0.00
2013-4-7,73,57,45,50,32,19,62,41,21,29.90,29.71,15,5,20,0.00
2013-4-8,47,37,31,38,34,30,97,89,59,29.86,29.55,24,12,38,0.01
2013-4-9,54,41,29,37,26,13,95,59,30,30.11,29.85,13,6,21,0.02
2013-4-10,63,49,38,29,19,14,50,32,16,30.17,30.07,16,6,25,0.00
2013-4-11,65,53,39,41,25,12,70,35,25,30.10,29.78,16,5,20,0.00
2013-4-12,67,51,36,33,25,14,59,38,21,29.94,29.76,12,4,19,0.00
2013-4-13,66,55,39,36,29,18,54,38,25,29.94,29.80,18,7,25,0.00
2013-4-14,64,52,42,41,28,-24,76,44,4,29.81,29.70,21,10,26,0.00
2013-4-15,48,41,32,39,35,30,96,78,51,29.86,29.71,21,10,30,0.00
2013-4-16,44,35,28,33,28,20,95,79,56,30.03,29.80,23,11,38,0.00
2013-4-17,53,39,27,28,16,6,94,47,17,30.24,30.03,16,6,24,0.00
2013-4-18,55,45,37,17,10,1,36,24,17,30.28,30.18,24,9,35,0.00
2013-4-19,67,53,41,22,11,3,35,20,11,30.25,30.05,38,8,38,0.00
2013-4-20,72,58,40,25,20,12,53,25,15,30.04,29.94,15,5,21,0.00
2013-4-21,77,58,37,39,27,12,58,34,15,30.07,29.98,10,3,16,0.00
2013-4-22,74,60,45,39,22,2,42,24,9,30.01,29.80,12,4,17,0.00
2013-4-23,68,57,41,33,27,20,45,32,21,29.91,29.77,19,6,21,0.00
2013-4-24,68,53,36,46,31,19,94,48,19,29.91,29.79,12,4,20,0.00
2013-4-25,67,48,35,46,35,19,97,66,31,30.15,29.81,16,6,22,0.00
2013-4-26,72,57,41,37,26,18,61,33,19,30.16,30.09,8,3,12,0.00
2013-4-27,76,61,41,39,26,12,65,31,9,30.17,30.03,14,4,16,0.00
2013-4-28,80,65,51,34,23,13,41,22,9,30.03,29.83,16,5,23,0.00
2013-4-29,82,67,56,36,22,7,30,19,12,29.85,29.71,14,5,23,0.00
2013-4-30,71,63,55,44,27,9,50,28,13,29.75,29.68,15,8,24,0.00
2013-5-1,70,61,47,35,21,1,40,23,10,30.08,29.75,24,7,28,0.00
2013-5-2,64,56,47,12,2,-4,16,11,9,30.16,30.07,19,9,26,0.00
2013-5-3,72,59,45,27,13,-3,34,18,10,30.11,29.84,13,6,18,0.00
2013-5-4,70,56,41,35,19,7,39,25,14,29.85,29.72,20,7,27,0.00
2013-5-5,58,48,38,41,30,11,96,54,22,29.90,29.73,16,8,27,0.00
2013-5-6,45,42,39,45,41,39,99,98,97,30.03,29.86,22,7,27,0.25
2013-5-7,43,39,33,43,39,32,99,98,91,30.12,29.98,25,8,31,0.23
2013-5-8,60,43,31,48,39,30,99,87,56,30.15,30.07,11,4,18,0.01
2013-5-9,64,49,31,48,37,29,96,68,36,30.12,30.05,11,4,15,0.01
2013-5-10,70,58,46,49,40,36,78,53,30,30.09,30.03,14,4,16,0.00
2013-5-11,74,61,43,42,36,30,82,44,22,30.13,30.06,14,5,25,0.00
2013-5-12,79,62,44,43,34,30,67,39,18,30.14,30.03,11,4,18,0.00
2013-5-13,83,66,46,43,34,30,59,33,16,30.07,29.95,13,4,18,0.00
2013-5-14,77,66,57,33,26,0,32,22,9,29.95,29.84,20,7,27,0.00
2013-5-15,70,60,48,44,28,7,48,30,15,29.95,29.86,17,7,22,0.00
2013-5-16,73,62,51,39,25,-12,47,28,6,29.91,29.79,18,7,21,0.00
2013-5-17,62,54,46,45,38,26,82,56,37,29.92,29.76,19,9,24,0.00
2013-5-18,75,58,47,48,38,27,73,50,30,29.99,29.90,15,6,25,0.00
2013-5-19,79,63,46,53,36,15,79,39,20,29.93,29.80,19,5,24,0.00
2013-5-20,77,61,44,46,35,29,82,42,20,29.96,29.86,14,5,18,0.00
2013-5-21,76,60,41,50,37,28,77,46,22,29.95,29.83,17,5,19,0.00
2013-5-22,71,60,50,39,22,-35,41,25,2,29.83,29.68,17,9,31,0.00
2013-5-23,66,54,46,32,-1,-48,38,13,1,29.90,29.70,16,8,28,0.00
2013-5-24,72,58,43,41,5,-37,39,16,2,29.95,29.86,10,4,15,0.00
2013-5-25,70,57,41,35,5,-34,29,15,2,29.95,29.88,18,6,22,0.00
2013-5-26,68,57,49,39,14,-100,48,25,1,29.97,29.88,16,8,26,0.00
2013-5-27,74,60,50,42,32,24,54,36,20,29.91,29.79,16,7,21,0.00
2013-5-28,68,58,52,47,39,31,67,50,38,29.79,29.68,20,8,27,0.00
2013-5-29,82,63,45,48,39,30,72,44,21,29.80,29.69,14,5,24,0.00
2013-5-30,83,69,51,53,33,1,52,28,10,29.78,29.69,12,5,19,0.00
2013-5-31,82,72,60,48,34,10,47,26,11,29.79,29.72,17,5,17,0.00
2013-6-1,84,72,52,48,39,30,62,34,14,29.78,29.71,14,5,17,0.00
2013-6-2,85,66,46,47,32,25,61,31,13,29.77,29.68,10,4,16,0.00
2013-6-3,81,68,55,44,32,12,45,28,16,29.76,29.66,8,3,13,0.00
2013-6-4,81,65,43,44,17,-4,37,17,7,29.87,29.75,8,3,14,0.00
2013-6-5,88,69,50,47,24,6,32,19,9,29.88,29.78,11,3,16,0.00
2013-6-6,92,72,52,44,21,0,23,15,7,29.83,29.75,11,3,17,0.00
2013-6-7,92,72,54,43,24,-2,40,19,8,29.78,29.68,13,3,18,0.00
2013-6-8,92,71,51,48,26,4,33,20,8,29.81,29.68,9,4,14,0.00
2013-6-9,87,66,48,29,14,-1,23,14,7,29.85,29.79,17,4,24,0.00
2013-6-10,79,65,54,37,21,3,34,19,12,29.88,29.79,16,5,21,0.00
2013-6-11,88,72,54,40,28,16,34,20,13,29.89,29.82,9,4,14,0.00
2013-6-12,84,69,53,46,30,5,42,24,10,29.89,29.82,20,4,20,0.00
2013-6-13,84,70,60,33,23,1,32,18,8,29.89,29.80,11,5,16,0.00
2013-6-14,85,70,57,38,15,-14,22,13,5,29.81,29.72,10,4,14,0.00
2013-6-15,80,66,50,32,-1,-100,20,8,1,29.88,29.74,15,6,19,0.00
2013-6-16,82,66,44,34,6,-27,21,10,3,29.95,29.86,11,4,14,0.00
2013-6-17,87,69,53,39,15,-1,27,13,4,29.92,29.81,12,4,14,0.00
2013-6-18,81,68,55,35,19,1,26,15,10,29.83,29.74,12,5,17,0.00
2013-6-19,80,67,58,31,10,-42,26,12,1,29.77,29.68,15,7,20,0.00
2013-6-20,84,68,58,40,13,-29,35,14,2,29.78,29.70,15,5,18,0.00
2013-6-21,81,68,54,39,17,-29,27,16,2,29.80,29.73,11,5,15,0.00
2013-6-22,84,68,53,39,25,-8,31,21,6,29.83,29.74,10,5,17,0.00
2013-6-23,77,64,55,43,28,1,48,26,10,29.76,29.68,17,7,21,0.00
2013-6-24,72,61,54,48,33,12,76,40,13,29.84,29.70,18,9,25,0.00
2013-6-25,84,69,53,51,46,36,77,46,31,29.93,29.84,14,5,21,0.00
2013-6-26,87,72,53,54,48,42,70,45,29,29.93,29.85,11,3,14,0.00
2013-6-27,92,72,54,51,36,5,60,32,9,29.99,29.92,11,4,16,0.00
2013-6-28,95,80,64,45,22,-9,23,13,4,29.97,29.79,13,5,17,0.00
2013-6-29,100,84,67,48,37,28,29,20,11,29.80,29.65,12,4,16,0.00
2013-6-30,100,79,62,51,39,31,33,25,12,29.75,29.67,10,3,20,0.00
2013-7-1,90,77,67,52,44,37,43,31,21,29.81,29.71,10,4,16,0.00
2013-7-2,90,78,70,54,44,39,40,30,19,29.88,29.79,12,5,19,0.00
2013-7-3,89,78,71,46,41,35,33,27,18,29.80,29.69,14,7,21,0.00
2013-7-4,94,80,71,46,39,26,34,23,17,29.71,29.61,12,6,19,0.00
2013-7-5,97,79,61,56,40,21,51,27,13,29.68,29.59,18,3,28,0.00
2013-7-6,91,72,59,52,44,31,56,37,26,29.70,29.63,8,3,13,0.00
2013-7-7,92,76,57,50,43,34,63,35,18,29.77,29.67,12,4,15,0.00
2013-7-8,93,77,68,44,34,27,28,21,13,29.86,29.75,11,4,21,0.00
2013-7-9,91,79,65,58,44,32,50,30,19,29.90,29.80,9,3,13,0.00
2013-7-10,86,75,69,57,46,39,52,36,20,29.84,29.75,10,3,15,0.00
2013-7-11,74,66,58,55,50,38,88,59,33,29.85,29.76,10,4,13,0.05
2013-7-12,83,68,56,63,53,49,81,60,38,29.88,29.78,8,2,14,0.02
2013-7-13,86,70,55,56,52,47,85,56,34,29.89,29.81,9,2,17,0.00
2013-7-14,88,74,58,52,49,45,69,43,28,29.85,29.75,11,3,15,0.00
2013-7-15,87,73,63,50,44,32,55,37,24,29.77,29.68,19,5,20,0.00
2013-7-16,83,70,59,36,24,-8,30,19,5,29.91,29.74,21,7,22,0.00
2013-7-17,90,73,57,39,9,-26,19,9,2,29.96,29.88,10,3,14,0.00
2013-7-18,64,63,62,-14,-19,-20,4,3,3,29.91,29.88,5,3,6,0.00
2013-7-20,79,66,57,66,60,56,97,83,57,29.76,29.66,9,2,23,0.46
2013-7-21,72,62,55,66,61,54,98,93,78,29.91,29.76,10,3,14,0.93
2013-7-22,71,62,54,67,60,53,99,93,79,29.96,29.88,7,2,15,0.54
2013-7-23,79,66,54,65,58,54,99,79,53,29.97,29.87,10,3,15,0.55
2013-7-24,84,70,57,61,55,42,91,61,37,29.91,29.80,11,4,16,0.00
2013-7-25,86,75,65,61,50,37,65,41,28,29.89,29.83,12,4,15,0.00
2013-7-26,84,72,58,58,52,40,78,52,36,29.95,29.86,8,2,12,0.00
2013-7-27,60,58,57,53,48,43,82,70,54,29.94,29.92,4,2,5,0.00
2013-7-30,86,74,55,54,45,-100,77,40,29,29.98,0.00,9,-38,17,0.00
2013-7-31,85,71,53,34,17,5,23,14,5,30.00,29.93,11,3,16,0.00
2013-8-1,85,68,53,42,14,-10,35,14,5,29.96,29.83,8,3,15,0.00
2013-8-2,86,71,58,42,18,-14,29,14,4,29.88,29.80,9,3,15,0.00
2013-8-3,89,72,53,49,17,-26,51,16,2,29.88,29.80,10,3,14,0.00
2013-8-4,88,72,53,40,18,-7,25,14,4,29.93,29.86,10,3,13,0.00
2013-8-5,88,73,55,44,23,-10,40,18,4,29.90,29.79,15,4,16,0.00
2013-8-6,84,70,55,40,22,1,40,18,8,29.94,29.83,11,5,16,0.00
2013-8-7,80,69,60,35,23,8,32,19,7,29.96,29.88,16,7,20,0.00
2013-8-8,80,68,60,37,28,17,31,23,13,29.89,29.82,13,7,20,0.00
2013-8-9,79,66,51,38,23,7,37,20,11,29.88,29.79,13,4,18,0.00
2013-8-10,84,63,44,45,21,6,37,21,9,29.96,29.87,9,3,14,0.00
2013-8-11,85,64,45,48,25,6,56,26,8,29.97,29.86,10,3,15,0.00
2013-8-12,88,66,47,44,33,26,55,31,15,29.93,29.87,10,3,14,0.00
2013-8-13,84,68,49,43,34,23,65,31,13,29.94,29.87,13,4,18,0.00
2013-8-14,86,69,50,48,39,26,64,36,21,29.91,29.83,9,3,14,0.00
2013-8-15,89,71,56,51,44,32,63,40,21,29.91,29.84,8,3,15,0.00
2013-8-16,92,73,58,55,48,38,74,44,18,29.90,29.84,14,2,15,0.00
2013-8-17,92,74,59,53,45,37,53,36,22,29.90,29.74,14,4,18,0.00
2013-8-18,91,75,60,56,49,38,56,40,28,29.82,29.74,10,4,16,0.00
2013-8-19,85,70,57,55,50,42,69,50,28,29.86,29.78,11,4,19,0.00
2013-8-20,92,72,54,46,36,24,64,30,11,29.91,29.81,10,3,17,0.00
2013-8-21,91,72,55,51,42,38,57,37,16,29.88,29.80,10,3,16,0.00
2013-8-22,89,74,59,60,46,39,73,38,22,29.88,29.77,10,3,15,0.00
2013-8-23,84,68,53,66,50,43,93,55,34,29.82,29.72,8,3,19,0.51
2013-8-24,82,64,52,63,52,41,89,65,26,29.89,29.78,12,4,21,0.00
2013-8-25,78,64,52,64,57,45,95,78,52,29.91,29.86,9,3,14,0.02
2013-8-26,67,62,58,62,60,56,98,92,77,29.92,29.85,10,2,14,0.46
2013-8-27,79,66,58,66,60,56,98,84,60,29.88,29.76,9,2,11,0.10
2013-8-28,84,66,54,65,58,51,96,77,42,29.92,29.79,9,3,16,0.73
2013-8-29,71,64,58,66,61,56,96,88,76,30.00,29.89,10,4,18,0.36
2013-8-30,76,67,62,66,62,60,97,87,64,30.00,29.90,11,3,16,0.01
2013-8-31,79,67,58,66,60,50,98,80,54,29.94,29.85,11,3,16,0.01
2013-9-1,86,72,62,62,54,48,70,55,39,29.90,29.79,8,3,15,0.00
2013-9-2,83,64,55,63,55,48,95,76,42,29.90,29.81,8,2,17,0.02
2013-9-3,82,66,54,63,56,52,94,73,42,29.97,29.85,8,3,15,0.02
2013-9-4,82,68,56,61,56,51,94,68,39,29.95,29.87,13,3,17,0.00
2013-9-5,84,67,55,64,55,50,92,68,39,29.92,29.86,14,2,19,0.02
2013-9-6,85,66,56,61,54,50,83,68,38,29.92,29.89,13,3,17,0.34
2013-9-13,80,80,80,42,42,42,26,26,26,29.68,29.68,2,2,5,0.00
2013-9-16,87,83,81,46,44,42,29,24,22,29.85,29.81,9,5,16,0.00
2013-9-17,63,56,47,35,14,-8,38,22,7,29.73,29.68,10,4,10,0.00
2013-9-18,80,64,48,49,22,-6,57,24,7,29.75,29.66,11,4,19,0.00
2013-9-19,78,65,47,36,31,26,53,29,19,29.81,29.73,11,4,16,0.00
2013-9-20,81,61,45,50,35,14,64,40,20,29.86,29.77,9,3,14,0.00
2013-9-21,74,58,44,46,26,5,90,36,10,29.86,29.71,17,5,27,0.00
2013-9-22,70,54,42,46,39,28,97,62,24,29.87,29.65,21,7,31,0.00
2013-9-23,74,62,54,35,30,25,43,30,21,29.93,29.86,13,6,23,0.00
2013-9-24,79,61,44,44,34,28,57,39,17,29.96,29.83,12,3,17,0.00
2013-9-25,66,57,49,41,27,2,57,34,14,29.83,29.64,24,10,34,0.00
2013-9-26,55,48,40,42,26,-12,94,52,7,29.89,29.62,22,9,34,0.00
2013-9-27,62,50,32,37,24,19,87,41,22,30.09,29.89,18,7,22,0.00
2013-9-28,68,56,42,26,20,7,34,25,15,30.11,30.05,15,6,20,0.00
2013-9-29,79,55,34,29,19,10,41,27,10,30.17,30.05,8,4,13,0.00
2013-9-30,78,59,43,31,19,3,40,22,11,30.08,29.91,9,3,21,0.00
2013-10-1,76,61,46,39,24,7,52,25,16,29.95,29.89,12,4,15,0.00
2013-10-2,72,59,42,46,29,1,52,33,10,29.92,29.86,11,5,18,0.00
2013-10-3,66,58,52,39,22,-6,56,27,8,29.88,29.76,17,8,29,0.00
2013-10-4,61,53,48,32,16,10,43,24,17,30.13,29.84,21,8,28,0.00
2013-10-5,64,56,48,15,12,7,27,18,11,30.22,30.13,28,12,35,0.00
2013-10-6,71,57,44,20,13,3,24,18,9,30.18,30.07,30,8,34,0.00
2013-10-7,58,55,48,24,12,8,27,19,16,30.07,29.98,13,7,17,0.00
2013-10-8,65,54,40,41,24,6,95,37,14,29.97,29.72,16,6,23,0.00
2013-10-9,40,38,34,39,37,33,98,98,95,29.81,29.65,19,9,33,0.51
2013-10-10,56,39,33,45,36,29,99,88,63,30.11,29.81,23,6,35,0.68
2013-10-11,60,48,33,38,32,28,83,56,37,30.14,30.03,12,4,15,0.00
2013-10-12,67,49,35,47,34,23,90,60,33,30.03,29.93,7,2,13,0.00
2013-10-13,60,50,38,39,28,2,60,44,18,30.06,29.93,14,6,19,0.00
2013-10-14,60,52,46,32,27,24,48,39,31,30.10,30.02,16,6,21,0.00
2013-10-15,62,51,39,31,26,23,59,40,27,30.08,29.98,13,4,15,0.00
2013-10-16,66,52,37,30,24,20,52,34,19,30.12,30.05,15,5,23,0.00
2013-10-17,69,50,34,28,23,18,57,37,20,30.12,30.00,11,3,18,0.00
2013-10-18,66,57,36,23,19,-100,55,25,18,30.07,30.01,18,7,24,0.00
2013-10-19,73,61,47,32,20,11,41,22,9,30.07,29.99,14,7,17,0.00
2013-11-9,67,44,37,18,15,13,39,31,14,30.20,30.12,6,3,7,0.00
2013-11-10,69,55,42,27,16,3,42,22,13,30.17,30.08,12,3,17,0.00
2013-11-11,66,56,48,36,31,21,49,40,32,30.18,30.06,12,6,16,0.00
2013-11-12,68,60,49,35,29,22,45,31,24,30.23,30.13,14,5,16,0.00
2013-11-13,70,59,53,35,30,23,45,35,25,30.14,29.98,10,5,14,0.00
2013-11-14,70,58,50,33,28,22,45,33,19,30.01,29.78,10,4,15,0.00
2013-11-15,56,47,38,42,34,26,93,64,38,29.76,29.57,18,7,28,0.00
2013-11-17,56,46,39,39,37,35,94,72,52,30.14,30.09,11,4,15,0.00
2013-11-18,63,46,35,46,38,28,97,73,47,30.18,30.06,8,2,14,0.01
2013-11-19,65,52,37,30,20,6,69,30,11,30.08,29.91,14,6,20,0.01
2013-11-20,53,47,43,44,38,25,98,74,38,29.91,29.83,14,8,28,0.01
2013-11-21,43,41,37,43,40,37,98,98,97,29.91,29.87,14,5,21,0.18
2013-11-22,42,36,33,41,35,32,99,98,96,30.01,29.87,9,2,11,0.46
2013-11-23,33,33,33,33,33,33,98,98,98,30.01,30.01,0,0,3,0.46
2013-11-25,52,46,42,33,21,-100,62,43,34,30.35,30.31,18,-7,31,0.00
2013-11-26,53,45,38,33,28,24,66,53,42,30.33,30.16,17,8,23,0.00
2013-11-27,53,43,37,33,28,24,74,59,38,30.16,30.00,17,6,19,0.00
2013-11-28,54,39,27,39,29,23,94,69,39,30.18,30.01,7,2,16,0.00
2013-11-29,50,41,30,37,32,27,95,72,53,30.29,30.17,11,3,14,0.00
2013-11-30,55,43,32,35,32,28,96,68,42,30.30,30.20,8,4,15,0.00
2013-12-1,56,47,41,31,25,6,63,44,20,30.32,30.24,14,7,21,0.00
2013-12-2,66,53,37,24,12,3,34,20,12,30.25,29.91,11,4,17,0.00
2013-12-3,56,46,39,40,25,10,97,51,19,29.90,29.68,23,12,34,0.18
2013-12-4,41,34,28,39,31,26,98,91,68,30.00,29.67,29,7,41,0.45
2013-12-5,34,28,19,31,26,17,96,93,84,30.21,29.98,11,4,17,0.01
2013-12-6,38,29,20,32,26,19,96,89,68,30.30,30.20,11,4,17,0.02
2013-12-7,34,29,26,33,28,25,98,97,95,30.19,30.04,29,13,43,0.01
2013-12-8,33,27,18,32,26,17,98,96,93,30.28,30.13,21,4,28,0.04
2013-12-9,31,24,19,21,13,4,95,65,39,30.54,30.28,21,8,27,0.04
2013-12-10,47,38,28,13,-4,-18,42,17,9,30.49,30.24,16,8,26,0.03
2013-12-11,49,41,32,8,2,-5,28,20,13,30.28,30.21,16,7,20,0.04
2013-12-12,53,42,34,31,18,6,67,40,27,30.27,30.18,11,5,15,0.00
2013-12-13,57,45,38,16,12,8,35,27,18,30.26,30.17,15,6,24,0.00
2013-12-14,47,42,37,17,14,11,40,32,25,30.35,30.25,23,10,35,0.00
2013-12-18,40,38,36,29,24,21,77,58,47,29.81,29.77,15,7,21,0.00
2013-12-19,36,33,27,35,32,26,98,97,89,29.80,29.67,18,7,30,0.12
2013-12-20,47,34,25,36,29,20,97,84,52,30.02,29.80,9,3,14,0.01
2013-12-21,56,42,25,40,27,17,81,57,37,30.13,29.98,12,5,22,0.01
2013-12-22,47,41,40,28,26,24,61,56,47,30.33,30.11,22,9,27,0.00
2013-12-23,51,43,39,27,25,20,57,48,37,30.43,30.33,21,11,33,0.00
2013-12-24,59,50,42,29,24,19,48,37,22,30.35,30.22,19,9,29,0.00
2013-12-25,51,46,44,26,20,16,44,36,26,30.29,30.23,25,13,29,0.00
2013-12-26,50,46,42,9,6,5,22,20,16,30.29,30.25,25,14,28,0.00